Weather History for KTVR - September, 2013

Change the Weather History Date:

Sunday, September 29, 2013

  Actual Average Record
Temperature  
Mean Temperature 72 °F 71 °F  
Max Temperature 77 °F 83 °F 96 °F (1953)
Min Temperature 67 °F 59 °F 34 °F (1967)
Degree Days  
Heating Degree Days 0 1  
Month to date heating degree days 0 2  
Since 1 July heating degree days 0 2  
Cooling Degree Days 7 7  
Month to date cooling degree days 393 301  
Year to date cooling degree days 2100 2090  
Growing Degree Days 22 (Base 50)    
Moisture  
Dew Point 67 °F    
Average Humidity 86    
Maximum Humidity 93    
Minimum Humidity 78    
Precipitation  
Precipitation T in 0.10 in 1.59 in (1999)
Month to date precipitation 5.65 2.79  
Year to date precipitation 53.80 39.36  
Sea Level Pressure  
Sea Level Pressure 30.01 in    
Wind  
Wind Speed 5 mph (SSE)    
Max Wind Speed 10 mph    
Max Gust Speed 14 mph    
Visibility 10 miles    
Events Rain    
T = Trace of Precipitation, MM = Missing Value Source: NWS Daily Summary

Daily Weather History Graph

Daily Weather History Graph

Search for Another Location

Airport or City:

Trip Planner

Search our weather history database for the weather conditions in past years. The results will help you decide how hot, cold, wet, or windy it might be!

Date:

Astronomy

Sep. 29, 2013 Rise Set
Actual Time 6:56 AM CDT 6:51 PM CDT
Civil Twilight 6:32 AM CDT 7:15 PM CDT
Nautical Twilight 6:04 AM CDT 7:43 PM CDT
Astronomical Twilight 5:35 AM CDT 8:12 PM CDT
Moon 1:54 AM CDT (9/29) 3:33 PM CDT (9/29)
Length of Visible Light 12h 43m
Length of Day
11h 54m
Waning Crescent, 27% of the Moon is Illuminated
Sep 29
Waning Crescent
Oct 4
New
Oct 11
First Quarter
Oct 18
Full
Oct 26
Last Quarter

Hourly Weather History & Observations

Time (CDT) Temp. Dew Point Humidity Pressure Visibility Wind Dir Wind Speed Gust Speed Precip Events Conditions
12:53 AM 70.0 °F 63.0 °F 78% 30.06 in 10.0 mi SE 3.5 mph - N/A   Overcast
1:53 AM 69.1 °F 62.1 °F 78% 30.04 in 10.0 mi SSE 5.8 mph - N/A   Clear
2:53 AM 70.0 °F 62.1 °F 76% 30.02 in 10.0 mi SE 8.1 mph - N/A   Clear
3:53 AM 69.1 °F 63.0 °F 81% 30.01 in 10.0 mi SE 3.5 mph - N/A   Clear
4:53 AM 68.0 °F 64.0 °F 87% 30.03 in 10.0 mi Calm Calm - 0.00 in Rain Light Rain
5:53 AM 68.0 °F 64.0 °F 87% 30.04 in 10.0 mi SE 4.6 mph - 0.00 in   Clear
6:53 AM 69.1 °F 64.0 °F 84% 30.05 in 10.0 mi SE 4.6 mph - N/A   Overcast
7:53 AM 70.0 °F 64.9 °F 84% 30.06 in 10.0 mi Calm Calm - N/A   Overcast
8:53 AM 71.1 °F 66.0 °F 84% 30.05 in 10.0 mi SSE 6.9 mph - N/A   Overcast
9:53 AM 72.0 °F 66.0 °F 81% 30.06 in 10.0 mi SSE 5.8 mph - N/A   Overcast
10:53 AM 73.0 °F 66.9 °F 81% 30.06 in 10.0 mi South 5.8 mph - N/A   Overcast
11:53 AM 73.9 °F 68.0 °F 82% 30.06 in 10.0 mi South 5.8 mph - 0.00 in Rain Light Rain
12:53 PM 73.0 °F 68.0 °F 84% 30.04 in 9.0 mi South 5.8 mph - 0.00 in Rain Light Rain
1:53 PM 73.0 °F 70.0 °F 90% 30.02 in 10.0 mi South 4.6 mph - 0.00 in   Overcast
2:53 PM 75.9 °F 70.0 °F 82% 29.99 in 10.0 mi South 6.9 mph - N/A   Mostly Cloudy
3:12 PM 75.2 °F 69.8 °F 83% 29.97 in 10.0 mi South 5.8 mph - N/A   Overcast
3:53 PM 73.0 °F 69.1 °F 87% 29.98 in 7.0 mi South 4.6 mph - 0.00 in Rain Light Rain
4:53 PM 73.9 °F 69.1 °F 85% 29.98 in 10.0 mi South 10.4 mph - 0.00 in   Overcast
5:02 PM 73.4 °F 69.8 °F 88% 29.96 in 10.0 mi South 8.1 mph - N/A   Overcast
5:53 PM 73.0 °F 69.1 °F 87% 29.98 in 10.0 mi South 6.9 mph - N/A   Overcast
6:03 PM 73.4 °F 69.8 °F 88% 29.96 in 10.0 mi SSE 5.8 mph - N/A   Overcast
6:53 PM 72.0 °F 69.1 °F 91% 29.98 in 10.0 mi SSE 4.6 mph - 0.00 in   Overcast
7:53 PM 72.0 °F 69.1 °F 91% 29.98 in 10.0 mi SSE 6.9 mph - N/A   Overcast
8:53 PM 72.0 °F 68.0 °F 87% 29.98 in 10.0 mi SSE 5.8 mph - N/A   Overcast
9:53 PM 69.1 °F 66.9 °F 93% 29.98 in 9.0 mi Calm Calm - N/A   Partly Cloudy
10:53 PM 68.0 °F 66.0 °F 93% 29.97 in 5.0 mi Calm Calm - N/A   Mostly Cloudy
11:53 PM 70.0 °F 66.9 °F 90% 29.98 in 9.0 mi SSE 4.6 mph - N/A   Mostly Cloudy